Location: Unspecified
(0.0000°N, 0.0000°E)
Time: 02:36:47
(UTC+00:00)

COSMOS 2508 - Pass Details

Date: 10 October 2020
Orbit: 1484 x 1504 km, 82.5° (Epoch: 20 October)

Event Time Altitude Azimuth Distance (km) Brightness Sun altitude
Rises 19:22:51 0° 217° (SW) 4,629 ? -23.8°
Reaches altitude 10° 19:27:00 10° 235° (SW) 3,650 ? -24.8°
Maximum altitude 19:32:20 18° 273° (W) 3,082 ? -26.2°
Drops below altitude 10° 19:37:42 10° 312° (NW) 3,649 ? -27.5°
Sets 19:41:55 0° 330° (NNW) 4,628 ? -28.5°
